This is the latest recevied weather packets stored in our database for station/object KD8DNO-13. If no packets are shown the sender has not sent any weather packets the latest 10 day(s).
| Time | Temp. | Humidity | Pressure | Rain* | Wind** | Luminosity | Snow |
|---|---|---|---|---|---|---|---|
| 1787872083 | 26.11° C | 67% | 1015.9 hPa | 0 mm | - | - | - |
| 1787871783 | 26.67° C | 65% | 1015.9 hPa | 0 mm | - | - | - |
| 1787871483 | 25.56° C | 67% | 1015.9 hPa | 0 mm | - | - | - |
| 1787871183 | 26.11° C | 64% | 1015.9 hPa | 0 mm | - | - | - |
| 1787870884 | 25.56° C | 66% | 1015.9 hPa | 0 mm | - | - | - |
| 1787870583 | 26.11° C | 64% | 1015.9 hPa | 0 mm | - | - | - |
| 1787870283 | 27.78° C | 58% | 1015.9 hPa | 0 mm | - | - | - |
| 1787869983 | 27.22° C | 61% | 1015.9 hPa | 0 mm | - | - | - |
| 1787869684 | 26.67° C | 62% | 1015.9 hPa | 0 mm | - | - | - |
| 1787869383 | 27.78° C | 58% | 1015.9 hPa | 0 mm | - | - | - |
| 1787869083 | 27.22° C | 60% | 1015.9 hPa | 0 mm | - | - | - |
| 1787868783 | 27.22° C | 60% | 1015.5 hPa | 0 mm | - | - | - |
| 1787868484 | 27.78° C | 59% | 1015.5 hPa | 0 mm | - | - | - |
| 1787868184 | 27.78° C | 60% | 1015.5 hPa | 0 mm | - | - | - |
| 1787867883 | 27.22° C | 62% | 1015.5 hPa | 0 mm | - | - | - |
| 1787867584 | 27.22° C | 65% | 1015.5 hPa | 0 mm | - | - | - |
| 1787867283 | 27.78° C | 63% | 1015.9 hPa | 0 mm | - | - | - |
| 1787866983 | 27.78° C | 62% | 1015.9 hPa | 0 mm | - | - | - |
| 1787866683 | 27.22° C | 64% | 1015.5 hPa | 0 mm | - | - | - |
| 1787866383 | 26.67° C | 63% | 1015.5 hPa | 0 mm | - | - | - |
| 1787866083 | 27.22° C | 64% | 1015.5 hPa | 0 mm | - | - | - |
| 1787865783 | 27.22° C | 64% | 1015.5 hPa | 0 mm | - | - | - |
| 1787865483 | 27.78° C | 61% | 1015.5 hPa | 0 mm | - | - | - |
| 1787865183 | 27.22° C | 64% | 1015.9 hPa | 0 mm | - | - | - |
| 1787864884 | 27.78° C | 62% | 1015.9 hPa | 0 mm | - | - | - |
* Rain latest hour (hover to see other rain measurements)
** Current wind speed in m/s (hover to see current wind gust speed)